Simultaneous Nadir Overpasses (SNOs) Predictions

Prediction of SNOs between GOES-14 and NPP Satellite Orbit:

Table of predicted SNOs for the next 14.0 days since TLE Epoch: 10/29/2022
Index Date Time (GOES-14) GOES-14 Lat,Lon NPP Lat,Lon Distance(km) Time Diff (sec)
1 10/29/2022 08:33:47 0.12,-104.35 0.64,-106.58 253.98 80
2 10/30/2022 08:12:22 0.14,-104.33 -0.34,-102.04 261.03 80
3 10/31/2022 20:34:18 -0.11,-104.16 -0.81,-107.34 362.44 80
4 11/01/2022 20:18:13 -0.12,-104.17 0.18,-102.80 155.19 80
5 11/03/2022 08:40:01 0.08,-104.35 0.92,-108.08 425.61 80
6 11/04/2022 08:18:35 0.10,-104.34 -0.07,-103.55 89.94 80
7 11/06/2022 20:21:45 -0.09,-104.14 -0.14,-104.30 18.65 80
8 11/07/2022 20:05:40 -0.11,-104.15 0.86, -99.76 499.65 80
9 11/09/2022 08:27:28 0.08,-104.35 0.25,-105.04 78.78 80
10 11/10/2022 08:06:03 0.10,-104.34 -0.75,-100.50 436.92 80
11 11/11/2022 20:27:58 -0.06,-104.12 -0.44,-105.80 191.87 80
